Wolf Point, MT

6:06 AM MDT on September 29, 2016 (GMT -0600)
Clayton

Weather History for KOLF - June, 2013

Change the Weather History Date:

Sunday, June 2, 2013

  Actual Average Record
Temperature  
Mean Temperature 59 °F -  
Max Temperature 71 °F 74 °F 93 °F (2006)
Min Temperature 46 °F 45 °F 37 °F (2004)
Degree Days  
Heating Degree Days 6    
Cooling Degree Days 0    
Growing Degree Days 8 (Base 50)    
Moisture  
Dew Point 45 °F    
Average Humidity 62    
Maximum Humidity 90    
Minimum Humidity 39    
Precipitation  
Precipitation 0.00 in 0.10 in 0.87 in (2002)
Month to date precipitation 0.00 0.21  
Year to date precipitation 5.56 3.91  
Sea Level Pressure  
Sea Level Pressure 29.97 in    
Wind  
Wind Speed 9 mph (East)    
Max Wind Speed 18 mph    
Max Gust Speed 25 mph    
Visibility 10 miles    
Events      
T = Trace of Precipitation, MM = Missing Value Source: NWS Daily Summary

Daily Weather History Graph

Daily Weather History Graph

Search for Another Location

Airport or City:

Trip Planner

Search our weather history database for the weather conditions in past years. The results will help you decide how hot, cold, wet, or windy it might be!

Date:

Astronomy

Jun. 02, 2013 Rise Set
Actual Time 5:05 AM MDT 8:55 PM MDT
Civil Twilight 4:25 AM MDT 9:35 PM MDT
Nautical Twilight 3:30 AM MDT 10:30 PM MDT
Astronomical Twilight 2:09 AM MDT 11:53 PM MDT
Moon 1:58 AM MDT (6/2) 3:06 PM MDT (6/2)
Length of Visible Light 17h 09m
Length of Day
15h 49m
Waning Crescent, 30% of the Moon is Illuminated
Jun 2
Waning Crescent
Jun 8
New
Jun 16
First Quarter
Jun 23
Full
Jun 29
Last Quarter

Hourly Weather History & Observations

Time (MDT) Temp. Windchill Dew Point Humidity Pressure Visibility Wind Dir Wind Speed Gust Speed Precip Events Conditions
12:53 AM 48.9 °F - 46.0 °F 90% 30.11 in 10.0 mi ENE 4.6 mph - N/A   Clear
1:53 AM 46.9 °F - 44.1 °F 90% 30.10 in 10.0 mi NE 5.8 mph - N/A   Clear
2:53 AM 48.0 °F - 44.1 °F 86% 30.09 in 10.0 mi ENE 6.9 mph - N/A   Clear
3:53 AM 46.9 °F - 44.1 °F 90% 30.08 in 10.0 mi ENE 5.8 mph - N/A   Mostly Cloudy
4:53 AM 46.0 °F 42.5 °F 43.0 °F 89% 30.07 in 10.0 mi ENE 6.9 mph - N/A   Clear
5:53 AM 46.9 °F - 43.0 °F 86% 30.06 in 10.0 mi ENE 9.2 mph - N/A   Clear
6:53 AM 48.9 °F - 44.1 °F 83% 30.06 in 10.0 mi East 9.2 mph - N/A   Clear
7:53 AM 52.0 °F - 45.0 °F 77% 30.05 in 10.0 mi East 6.9 mph - N/A   Clear
8:53 AM 55.0 °F - 45.0 °F 69% 30.04 in 10.0 mi East 5.8 mph - N/A   Clear
9:53 AM 59.0 °F - 46.9 °F 64% 30.03 in 10.0 mi ENE 4.6 mph - N/A   Clear
10:53 AM 64.0 °F - 42.1 °F 45% 30.00 in 10.0 mi East 12.7 mph 17.3 mph N/A   Clear
11:53 AM 66.0 °F - 43.0 °F 43% 29.98 in 10.0 mi East 12.7 mph - N/A   Clear
12:53 PM 68.0 °F - 45.0 °F 43% 29.96 in 10.0 mi East 9.2 mph 19.6 mph N/A   Clear
1:53 PM 68.0 °F - 44.1 °F 42% 29.95 in 10.0 mi East 13.8 mph 20.7 mph N/A   Clear
2:53 PM 70.0 °F - 45.0 °F 41% 29.92 in 10.0 mi ESE 12.7 mph - N/A   Clear
3:53 PM 71.1 °F - 45.0 °F 39% 29.90 in 10.0 mi ESE 11.5 mph 24.2 mph N/A   Clear
4:53 PM 70.0 °F - 46.0 °F 42% 29.88 in 10.0 mi East 18.4 mph 25.3 mph N/A   Clear
5:53 PM 68.0 °F - 46.0 °F 45% 29.87 in 10.0 mi East 16.1 mph 23.0 mph N/A   Mostly Cloudy
6:53 PM 66.9 °F - 46.0 °F 47% 29.86 in 10.0 mi East 11.5 mph - N/A   Clear
7:53 PM 64.9 °F - 46.0 °F 50% 29.86 in 10.0 mi East 13.8 mph - N/A   Clear
8:53 PM 62.1 °F - 46.0 °F 56% 29.86 in 10.0 mi East 11.5 mph - N/A   Clear
9:53 PM 61.0 °F - 46.0 °F 58% 29.86 in 10.0 mi East 16.1 mph - N/A   Clear
10:53 PM 59.0 °F - 45.0 °F 60% 29.86 in 10.0 mi East 16.1 mph - N/A   Clear
11:53 PM 57.0 °F - 45.0 °F 64% 29.86 in 10.0 mi East 13.8 mph 23.0 mph N/A   Clear